Regional Weather Roundup
Issued by NWS

Home | Current Version | Previous Version | Graphics & Text | Print | Product List | Glossary On
Versions: 1 2 3 4 5 6 7 8 9 10 11 12 13 14 15 16 17 18 19 20 21 22 23 24 25 26 27 28 29 30 31 32 33 34 35 36 37 38 39 40 41 42 43 44 45 46 47 48 49 50
000
ASUS43 KLSX 292259
RWRMO

WEATHER SUMMARY FOR MISSOURI
NATIONAL WEATHER SERVICE SPRINGFIELD MO
600 PM CDT FRI MAY 29 2015

NOTE: "FAIR" INDICATES FEW OR NO CLOUDS BELOW 12,000 FEET WITH NO
       SIGNIFICANT WEATHER AND/OR OBSTRUCTIONS TO VISIBILITY.
       CURRENT SKY AND/OR WEATHER CONDITIONS ARE NOT AVAILABLE FOR
       CHILLICOTHE AND FARMINGTON.

MOZ001>031-035>038-043-044-053-054-300000-
...NORTHERN AND WESTERN MISSOURI...

CITY           SKY/WX    TMP DP  RH WIND       PRES   REMARKS
KANSAS CTY INT CLOUDY    70  66  87 S9        29.95F
KANSAS C DTWN  CLOUDY    71  64  78 SW6       29.95F
LEE`S SUMMIT   CLOUDY    68  64  87 SW7       29.98R
ST JOSEPH      CLOUDY    72  66  81 S12       29.94S
CHILLICOTHE      N/A     71  65  81 SW6       29.96R
KIRKSVILLE     CLOUDY    72  65  78 SW7       29.95R

$$
MOZ066>068-077>081-088>096-101>105-300000-
...SOUTHWEST MISSOURI...

CITY           SKY/WX    TMP DP  RH WIND       PRES   REMARKS
SPRINGFIELD    CLOUDY    72  68  87 E12       29.94S
JOPLIN         RAIN      64  63  96 E8        29.95F

$$
MOZ032>034-039>042-045>050-055>058-069>072-300000-
...CENTRAL MISSOURI...

CITY           SKY/WX    TMP DP  RH WIND       PRES   REMARKS
COLUMBIA       CLOUDY    73  66  78 CALM      29.98S
JEFFERSON CITY PTSUNNY   75  62  64 NW3       29.97S
ROLLA          PTSUNNY   74  66  76 NE5       29.97F
SEDALIA        CLOUDY    72  67  84 S5        29.98F
OSAGE BEACH    CLOUDY    72  66  83 N3        29.98R

$$
MOZ051-052-059>065-300000-
...EAST CENTRAL MISSOURI...

CITY           SKY/WX    TMP DP  RH WIND       PRES   REMARKS
ST LOUIS INTL  NOT AVBL
SPIRIT OF STL  PTSUNNY   79  70  74 SW5       29.94F
ST CHARLES     CLOUDY    81  68  64 NW8       29.94F

$$
MOZ072>076-082>087-097>100-106>115-300000-
...SOUTH CENTRAL AND SOUTHEAST MISSOURI...

CITY           SKY/WX    TMP DP  RH WIND       PRES   REMARKS
CAPE GIRARDEAU MOSUNNY   82  68  62 SE13      29.97S
FARMINGTON     PTSUNNY   70  66  88 S7        30.04F
POPLAR BLUFF   PTSUNNY   79  67  66 SE10      29.95S
WEST PLAINS    PTSUNNY   79  67  66 S7        29.95F THUNDER

$$



USA.gov is the U.S. government's official web portal to all federal, state and local government web resources and services.